Location: La Bilong�re
(48.1297°N, 1.4584°W)
Time: 03:25:13
(UTC+00:00)

YAOGAN 1 - Pass Details

Date: 03 March 2021
Orbit: 618 x 620 km, 97.9° (Epoch: 17 April)

Event Time Altitude Azimuth Distance (km) Brightness Sun altitude
Rises 19:14:15 0° 183° (S) 2,884 6.0 -14.3°
Reaches altitude 10° 19:16:31 10° 190° (S) 1,984 5.2 -14.6°
Maximum altitude 19:20:37 42° 261° (W) 888 3.9 -15.3°
Drops below altitude 10° 19:24:46 10° 334° (NNW) 2,000 5.6 -16.0°
Sets 19:27:04 0° 341° (NNW) 2,911 6.4 -16.4°
